Powrót do katalogu

STARLINK-37841

AktywnyŁącznośćVLEO
NORAD 69951·PAYLOAD·🇺🇸 United States

Wystrzelony Jul 9, 2026 z Cape Canaveral Space Force Station

Loading…

Następne Przeloty (najbliższe 24 godziny)

TLE

ŚwieżeSource: CelesTrak SupGP

Epoka: Sep 14, 2026, 23:32 UTC

1 69951C 26157J   26257.98104167 -.00006558  00000+0 -19377-3 0  2571
2 69951  53.1585 359.7162 0001170  84.9292 252.2618 15.34393785    10

Śledź STARLINK-37841 w czasie rzeczywistym z AllMySat

Download on the App Store